Regional Weather Roundup
Issued by NWS

Home | Current Version | Previous Version | Graphics & Text | Print | Product List | Glossary On
Versions: 1 2 3 4 5 6 7 8 9 10 11 12 13 14 15 16 17 18 19 20 21 22 23 24 25 26 27 28 29 30 31 32 33 34 35 36 37 38 39 40 41 42 43 44 45 46 47 48 49 50
000
ASUS43 KOAX 291402
RWRNE

WEATHER ROUNDUP FOR NEBRASKA
NATIONAL WEATHER SERVICE OMAHA NE
900 AM CDT SUN MAY 29 2016

NOTES: SATELLITE DATA IS BEING USED TO AUGMENT CLOUD COVER ABOVE
       12000 FEET.
       "FAIR" INDICATES FEW OR NO CLOUDS BELOW 12,000 FEET WITH NO
       SIGNIFICANT WEATHER AND/OR OBSTRUCTIONS TO VISIBILITY.

  * THESE STATIONS DO NOT REPORT WEATHER SUCH AS RAIN...SNOW OR FOG.

NEZ001>004-019>022-054>056-291500-
NEBRASKA PANHANDLE

CITY           SKY/WX    TMP DP  RH WIND       PRES   REMARKS
SCOTTSBLUFF    SUNNY     55  47  74 W6        30.12S
ALLIANCE       SUNNY     53  51  93 CALM      30.11S
CHADRON        SUNNY     51  46  83 CALM      30.12R
SIDNEY         SUNNY     57  47  69 S13       30.15R
$$

NEZ057>060-069>072-079>082-291500-
SOUTHWEST NEBRASKA

CITY           SKY/WX    TMP DP  RH WIND       PRES   REMARKS
NORTH PLATTE   SUNNY     60  53  77 CALM      30.14R
IMPERIAL       SUNNY     59  50  72 CALM      30.14R
LEXINGTON      SUNNY     62  55  77 NW3       30.13R
MCCOOK         SUNNY     61  53  75 NE3       30.13R
$$

NEZ005>010-023>029-035>040-094-291500-
NORTH CENTRAL NEBRASKA

CITY           SKY/WX    TMP DP  RH WIND       PRES   REMARKS
VALENTINE      SUNNY     58  51  78 SW7       30.11R
AINSWORTH      SUNNY     61  53  74 W6        30.12R
BROKEN BOW     MOSUNNY   61  56  83 SW3       30.13R
ORD            SUNNY     64  56  75 W5        30.10R
$$

NEZ041-046>049-061>064-073>077-083>087-291500-
SOUTH CENTRAL NEBRASKA

CITY           SKY/WX    TMP DP  RH WIND       PRES   REMARKS
GRAND ISLAND   SUNNY     67  55  65 SW6       30.12R
AURORA         MOSUNNY   68  58  71 SW7       30.11S
HASTINGS       MOSUNNY   64  55  72 SW5       30.12R
KEARNEY *      SUNNY     64  52  63 CALM      30.13S
YORK           SUNNY     66  57  72 S6        30.11R
$$

NEZ011>018-030>034-042>045-291500-
NORTHEAST NEBRASKA

CITY           SKY/WX    TMP DP  RH WIND       PRES   REMARKS
NORFOLK        MOSUNNY   65  57  75 CALM      30.09R
ALBION         SUNNY     66  55  69 SW6       30.10R
BLAIR          PTSUNNY   63  60  88 S3        30.09R
FREMONT        SUNNY     64  61  87 CALM      30.10R
TEKAMAH        CLOUDY    62  57  83 S5        30.08R
$$

NEZ050>053-065>068-078-088>093-291500-
SOUTHEAST NEBRASKA

CITY           SKY/WX    TMP DP  RH WIND       PRES   REMARKS
LINCOLN        PTSUNNY   66  58  75 S7        30.10R
OMAHA EPPLEY   PTSUNNY   66  60  81 CALM      30.09R
BEATRICE       SUNNY     67  58  73 SW7       30.11R
FALLS CITY     MOSUNNY   70  61  73 CALM      30.09R
NEBRASKA CITY  CLOUDY    67  58  73 S6        30.10R
$$

NEZ044-045-051>053-067-291500-
OMAHA AREA

CITY           SKY/WX    TMP DP  RH WIND       PRES   REMARKS
OMAHA EPPLEY   PTSUNNY   66  60  81 CALM      30.09R
BLAIR          PTSUNNY   63  60  88 S3        30.09R
FREMONT        SUNNY     64  61  87 CALM      30.10R
OFFUTT AFB     SUNNY     65  59  81 CALM      30.09R
WAHOO          FAIR      65  57  73 CALM      30.10R
$$




USA.gov is the U.S. government's official web portal to all federal, state and local government web resources and services.